Powrót do katalogu

NANKEDA-1

AktywnyNaukaSSO
NORAD 64049·PAYLOAD·🇨🇳 China
Ta nazwa satelity nie została jeszcze potwierdzona przez oficjalne źródła.

Wystrzelony May 17, 2025 z Jiuquan Satellite Launch Center

Loading…

Następne Przeloty (najbliższe 24 godziny)

TLE

ŚwieżeSource: Space-Track

Epoka: Sep 14, 2026, 15:08 UTC

1 64049U 25103B   26257.63119590  .00002710  00000-0  12795-3 0  9997
2 64049  97.3718 327.5376 0001220 176.4970 183.6274 15.20278166 73652

Śledź NANKEDA-1 w czasie rzeczywistym z AllMySat

Download on the App Store